| time (UTC) | temp C | wind direction | speed KPH | gust KPH | rain 1hr cm | rain 24hr cm | rain mn cm | humidity % | barometer mb |
| 20260502194312 | 18 | 250 | 17.7 | 38.6 | 0.00 | 0.00 | 0.00 | 36 | 1012.2 |
| 20260502193812 | 17 | 229 | 17.7 | 30.6 | 0.00 | 0.00 | 0.00 | 36 | 1012.4 |
| 20260502193312 | 17 | 259 | 16.1 | 32.2 | 0.00 | 0.00 | 0.00 | 36 | 1012.5 |
| 20260502192812 | 17 | 235 | 14.5 | 29.0 | 0.00 | 0.00 | 0.00 | 36 | 1012.6 |
| 20260502192312 | 17 | 242 | 16.1 | 27.4 | 0.00 | 0.00 | 0.00 | 37 | 1012.7 |
| 20260502191812 | 16 | 264 | 16.1 | 32.2 | 0.00 | 0.00 | 0.00 | 37 | 1012.8 |
| 20260502191312 | 16 | 263 | 17.7 | 25.7 | 0.00 | 0.00 | 0.00 | 39 | 1013.0 |
| 20260502190812 | 17 | 250 | 17.7 | 37.0 | 0.00 | 0.00 | 0.00 | 37 | 1013.1 |
| 20260502190312 | 17 | 223 | 16.1 | 25.7 | 0.00 | 0.00 | 0.00 | 37 | 1013.3 |
| 20260502185813 | 17 | 246 | 14.5 | 35.4 | 0.00 | 0.00 | 0.00 | 37 | 1013.3 |
| 20260502185313 | 16 | 252 | 16.1 | 22.5 | 0.00 | 0.00 | 0.00 | 41 | 1013.5 |
| 20260502184813 | 16 | 240 | 14.5 | 27.4 | 0.00 | 0.00 | 0.00 | 38 | 1013.5 |
| 20260502184313 | 16 | 251 | 12.9 | 25.7 | 0.00 | 0.00 | 0.00 | 37 | 1013.5 |
| 20260502183813 | 16 | 209 | 14.5 | 29.0 | 0.00 | 0.00 | 0.00 | 42 | 1013.5 |
| 20260502183313 | 16 | 250 | 16.1 | 27.4 | 0.00 | 0.00 | 0.00 | 37 | 1013.8 |
| 20260502182813 | 16 | 263 | 17.7 | 29.0 | 0.00 | 0.00 | 0.00 | 39 | 1013.8 |
| 20260502182313 | 16 | 232 | 16.1 | 35.4 | 0.00 | 0.00 | 0.00 | 39 | 1013.9 |
| 20260502181813 | 15 | 234 | 16.1 | 29.0 | 0.00 | 0.00 | 0.00 | 38 | 1014.0 |
| 20260502181313 | 15 | 244 | 16.1 | 41.8 | 0.00 | 0.00 | 0.00 | 38 | 1014.1 |
| 20260502180813 | 15 | 240 | 14.5 | 32.2 | 0.00 | 0.00 | 0.00 | 39 | 1014.2 |
| 20260502180313 | 15 | 242 | 17.7 | 32.2 | 0.00 | 0.00 | 0.00 | 39 | 1014.3 |
| 20260502170313 | 13 | 236 | 14.5 | 29.0 | 0.00 | 0.00 | 0.00 | 39 | 1015.2 |
| 20260502164313 | 13 | 206 | 16.1 | 30.6 | 0.00 | 0.00 | 0.00 | 40 | 1015.5 |
| 20260502163813 | 13 | 235 | 17.7 | 33.8 | 0.00 | 0.00 | 0.00 | 42 | 1015.6 |
| 20260502163313 | 13 | 262 | 17.7 | 30.6 | 0.00 | 0.00 | 0.00 | 41 | 1015.7 |
| 20260502162813 | 12 | 234 | 14.5 | 33.8 | 0.00 | 0.00 | 0.00 | 40 | 1015.7 |
| 20260502162313 | 12 | 239 | 14.5 | 30.6 | 0.00 | 0.00 | 0.00 | 39 | 1015.7 |
| 20260502161813 | 12 | 244 | 17.7 | 30.6 | 0.00 | 0.00 | 0.00 | 42 | 1015.8 |
| 20260502161313 | 12 | 234 | 17.7 | 38.6 | 0.00 | 0.00 | 0.00 | 41 | 1015.9 |
| 20260502160813 | 12 | 219 | 16.1 | 32.2 | 0.00 | 0.00 | 0.00 | 44 | 1016.0 |
| 20260502160313 | 12 | 246 | 16.1 | 35.4 | 0.00 | 0.00 | 0.00 | 43 | 1016.2 |
| 20260502152313 | 11 | 223 | 14.5 | 30.6 | 0.00 | 0.00 | 0.00 | 46 | 1017.0 |
| 20260502151813 | 10 | 211 | 12.9 | 25.7 | 0.00 | 0.00 | 0.00 | 49 | 1017.1 |
| 20260502151313 | 10 | 226 | 12.9 | 20.9 | 0.00 | 0.00 | 0.00 | 50 | 1017.1 |
| 20260502150813 | 10 | 237 | 11.3 | 27.4 | 0.00 | 0.00 | 0.00 | 50 | 1017.3 |
| 20260502150313 | 10 | 230 | 11.3 | 27.4 | 0.00 | 0.00 | 0.00 | 50 | 1017.3 |
| 20260502130744 | 4 | 261 | 8.0 | 12.9 | 0.00 | 0.00 | 0.00 | 65 | 1018.3 |
| 20260502130313 | 4 | 261 | 8.0 | 12.9 | 0.00 | 0.00 | 0.00 | 65 | 1018.3 |
| 20260502123813 | 3 | 238 | 6.4 | 11.3 | 0.00 | 0.00 | 0.00 | 68 | 1018.5 |
| 20260502123313 | 3 | 243 | 6.4 | 8.0 | 0.00 | 0.00 | 0.00 | 68 | 1018.5 |
| 20260502122813 | 2 | 254 | 4.8 | 8.0 | 0.00 | 0.00 | 0.00 | 68 | 1018.6 |
| 20260502122313 | 2 | 244 | 6.4 | 11.3 | 0.00 | 0.00 | 0.00 | 69 | 1018.6 |
| 20260502121813 | 2 | 234 | 6.4 | 9.7 | 0.00 | 0.00 | 0.00 | 68 | 1018.5 |
| 20260502121313 | 2 | 227 | 6.4 | 9.7 | 0.00 | 0.00 | 0.00 | 67 | 1018.5 |
| 20260502120813 | 2 | 229 | 6.4 | 12.9 | 0.00 | 0.00 | 0.00 | 67 | 1018.5 |
| 20260502120313 | 2 | 222 | 6.4 | 11.3 | 0.00 | 0.00 | 0.00 | 67 | 1018.5 |
| 20260502115813 | 2 | 234 | 6.4 | 9.7 | 0.00 | 0.00 | 0.00 | 67 | 1018.5 |
| 20260502115313 | 2 | 239 | 6.4 | 9.7 | 0.00 | 0.00 | 0.00 | 67 | 1018.5 |
| 20260502114855 | 2 | 237 | 6.4 | 9.7 | 0.00 | 0.00 | 0.00 | 67 | 1018.5 |
| 20260502114813 | 2 | 237 | 6.4 | 9.7 | 0.00 | 0.00 | 0.00 | 67 | 1018.5 |
| 20260502114313 | 2 | 239 | 6.4 | 9.7 | 0.00 | 0.00 | 0.00 | 67 | 1018.5 |
| 20260502113813 | 2 | 233 | 4.8 | 8.0 | 0.00 | 0.00 | 0.00 | 67 | 1018.5 |
| 20260502113313 | 2 | 240 | 4.8 | 8.0 | 0.00 | 0.00 | 0.00 | 67 | 1018.4 |
| 20260502112813 | 2 | 252 | 4.8 | 6.4 | 0.00 | 0.00 | 0.00 | 67 | 1018.5 |
| 20260502112313 | 2 | 234 | 4.8 | 8.0 | 0.00 | 0.00 | 0.00 | 66 | 1018.4 |
| 20260502111919 | 2 | 252 | 4.8 | 8.0 | 0.00 | 0.00 | 0.00 | 66 | 1018.5 |
| 20260502111813 | 2 | 252 | 4.8 | 8.0 | 0.00 | 0.00 | 0.00 | 66 | 1018.5 |
| 20260502111313 | 2 | 257 | 4.8 | 8.0 | 0.00 | 0.00 | 0.00 | 65 | 1018.5 |
| 20260502110919 | 2 | 244 | 4.8 | 6.4 | 0.00 | 0.00 | 0.00 | 65 | 1018.5 |
| 20260502110813 | 2 | 244 | 4.8 | 6.4 | 0.00 | 0.00 | 0.00 | 65 | 1018.5 |
| 20260502110313 | 2 | 248 | 4.8 | 6.4 | 0.00 | 0.00 | 0.00 | 64 | 1018.5 |
| 20260502105847 | 2 | 240 | 4.8 | 6.4 | 0.00 | 0.00 | 0.00 | 64 | 1018.5 |
| 20260502105813 | 2 | 240 | 4.8 | 6.4 | 0.00 | 0.00 | 0.00 | 64 | 1018.5 |
| 20260502105313 | 3 | 238 | 4.8 | 8.0 | 0.00 | 0.00 | 0.00 | 64 | 1018.5 |
| 20260502104813 | 3 | 251 | 4.8 | 8.0 | 0.00 | 0.00 | 0.00 | 64 | 1018.5 |
| 20260502104314 | 3 | 260 | 4.8 | 8.0 | 0.00 | 0.00 | 0.00 | 64 | 1018.6 |
| 20260502103813 | 3 | 254 | 3.2 | 6.4 | 0.00 | 0.00 | 0.00 | 65 | 1018.7 |
| 20260502103313 | 3 | 252 | 3.2 | 4.8 | 0.00 | 0.00 | 0.00 | 64 | 1018.7 |
| 20260502102813 | 3 | 264 | 3.2 | 4.8 | 0.00 | 0.00 | 0.00 | 64 | 1018.8 |
| 20260502102313 | 3 | 263 | 3.2 | 4.8 | 0.00 | 0.00 | 0.00 | 64 | 1018.8 |
| 20260502101813 | 3 | 262 | 3.2 | 4.8 | 0.00 | 0.00 | 0.00 | 64 | 1018.7 |
| 20260502101313 | 3 | 265 | 4.8 | 4.8 | 0.00 | 0.00 | 0.00 | 64 | 1018.8 |
| 20260502100813 | 2 | 265 | 4.8 | 6.4 | 0.00 | 0.00 | 0.00 | 65 | 1018.8 |
| 20260502100313 | 2 | 271 | 4.8 | 6.4 | 0.00 | 0.00 | 0.00 | 66 | 1018.7 |
| 20260502091506 | 2 | 259 | 6.4 | 9.7 | 0.00 | 0.00 | 0.00 | 68 | 1018.7 |
| 20260502091313 | 2 | 259 | 6.4 | 9.7 | 0.00 | 0.00 | 0.00 | 68 | 1018.7 |
| 20260502090915 | 2 | 261 | 6.4 | 11.3 | 0.00 | 0.00 | 0.00 | 68 | 1018.7 |
| 20260502090814 | 2 | 261 | 6.4 | 11.3 | 0.00 | 0.00 | 0.00 | 68 | 1018.7 |
| 20260502090314 | 2 | 252 | 4.8 | 11.3 | 0.00 | 0.00 | 0.00 | 66 | 1018.7 |
| 20260502071314 | 5 | 273 | 4.8 | 4.8 | 0.00 | 0.00 | 0.00 | 56 | 1019.0 |
| 20260502070814 | 5 | 278 | 4.8 | 6.4 | 0.00 | 0.00 | 0.00 | 55 | 1018.9 |
| 20260502070314 | 5 | 281 | 3.2 | 4.8 | 0.00 | 0.00 | 0.00 | 55 | 1018.9 |
| 20260502065814 | 5 | 298 | 1.6 | 3.2 | 0.00 | 0.00 | 0.00 | 54 | 1019.1 |
| 20260502065314 | 5 | 298 | 1.6 | 3.2 | 0.00 | 0.00 | 0.00 | 53 | 1019.1 |
| 20260502064814 | 5 | 298 | 1.6 | 3.2 | 0.00 | 0.00 | 0.00 | 53 | 1019.1 |
| 20260502064314 | 5 | 298 | 1.6 | 3.2 | 0.00 | 0.00 | 0.00 | 53 | 1019.1 |
| 20260502063943 | 5 | 298 | 1.6 | 3.2 | 0.00 | 0.00 | 0.00 | 53 | 1019.2 |
| 20260502063814 | 5 | 298 | 1.6 | 3.2 | 0.00 | 0.00 | 0.00 | 53 | 1019.2 |
| 20260502063314 | 5 | 296 | 1.6 | 3.2 | 0.00 | 0.00 | 0.00 | 53 | 1019.1 |
| 20260502062814 | 5 | 296 | 3.2 | 3.2 | 0.00 | 0.00 | 0.00 | 53 | 1019.2 |
| 20260502062314 | 5 | 296 | 1.6 | 3.2 | 0.00 | 0.00 | 0.00 | 53 | 1019.2 |
| 20260502061814 | 5 | 300 | 1.6 | 3.2 | 0.00 | 0.00 | 0.00 | 53 | 1019.2 |
| 20260502061314 | 5 | 298 | 1.6 | 3.2 | 0.00 | 0.00 | 0.00 | 52 | 1019.3 |
| 20260502060814 | 5 | 297 | 1.6 | 3.2 | 0.00 | 0.00 | 0.00 | 52 | 1019.2 |
| 20260502060314 | 6 | 301 | 1.6 | 4.8 | 0.00 | 0.00 | 0.00 | 52 | 1019.1 |
| 20260502055814 | 5 | 320 | 1.6 | 3.2 | 0.00 | 0.00 | 0.00 | 52 | 1019.1 |
| 20260502055314 | 5 | 310 | 1.6 | 4.8 | 0.00 | 0.00 | 0.00 | 53 | 1019.1 |
| 20260502054814 | 5 | 304 | 1.6 | 3.2 | 0.00 | 0.00 | 0.00 | 54 | 1019.0 |
| 20260502054314 | 5 | 298 | 1.6 | 3.2 | 0.00 | 0.00 | 0.00 | 54 | 1019.0 |
| 20260502053814 | 5 | 298 | 1.6 | 3.2 | 0.00 | 0.00 | 0.00 | 54 | 1019.1 |
| 20260502053431 | 5 | 298 | 3.2 | 4.8 | 0.00 | 0.00 | 0.00 | 54 | 1019.1 |
| 20260502053314 | 5 | 298 | 3.2 | 4.8 | 0.00 | 0.00 | 0.00 | 54 | 1019.1 |
| 20260502052849 | 5 | 298 | 3.2 | 4.8 | 0.00 | 0.00 | 0.00 | 53 | 1019.1 |
| 20260502052814 | 5 | 298 | 3.2 | 4.8 | 0.00 | 0.00 | 0.00 | 53 | 1019.1 |
| 20260502052314 | 6 | 298 | 1.6 | 3.2 | 0.00 | 0.00 | 0.00 | 53 | 1019.2 |
| 20260502051814 | 6 | 298 | 1.6 | 3.2 | 0.00 | 0.00 | 0.00 | 52 | 1019.1 |
| 20260502051314 | 6 | 298 | 1.6 | 3.2 | 0.00 | 0.00 | 0.00 | 52 | 1019.1 |
| 20260502050814 | 6 | 309 | 3.2 | 9.7 | 0.00 | 0.00 | 0.00 | 51 | 1019.1 |
| 20260502050314 | 6 | 323 | 3.2 | 6.4 | 0.00 | 0.00 | 0.00 | 52 | 1019.2 |
| 20260502045814 | 6 | 329 | 3.2 | 8.0 | 0.00 | 0.00 | 0.00 | 52 | 1019.2 |
| 20260502045314 | 6 | 331 | 3.2 | 6.4 | 0.00 | 0.00 | 0.00 | 51 | 1019.4 |
| 20260502044814 | 6 | 324 | 3.2 | 4.8 | 0.00 | 0.00 | 0.00 | 51 | 1019.2 |
| 20260502044314 | 6 | 327 | 3.2 | 4.8 | 0.00 | 0.00 | 0.00 | 51 | 1019.3 |
| 20260502043814 | 6 | 321 | 3.2 | 4.8 | 0.00 | 0.00 | 0.00 | 51 | 1019.3 |
| 20260502043314 | 6 | 328 | 4.8 | 8.0 | 0.00 | 0.00 | 0.00 | 51 | 1019.2 |
| 20260502042814 | 6 | 338 | 4.8 | 8.0 | 0.00 | 0.00 | 0.00 | 51 | 1019.4 |
| 20260502042314 | 6 | 326 | 4.8 | 9.7 | 0.00 | 0.00 | 0.00 | 52 | 1019.3 |
| 20260502041814 | 6 | 333 | 4.8 | 8.0 | 0.00 | 0.00 | 0.00 | 52 | 1019.3 |
| 20260502041314 | 6 | 0 | 4.8 | 8.0 | 0.00 | 0.00 | 0.00 | 52 | 1019.4 |
| 20260502040814 | 6 | 336 | 4.8 | 8.0 | 0.00 | 0.00 | 0.00 | 52 | 1019.2 |
| 20260502040314 | 6 | 5 | 4.8 | 6.4 | 0.00 | 0.00 | 0.00 | 52 | 1019.3 |
| 20260502035814 | 6 | 340 | 1.6 | 6.4 | 0.00 | 0.00 | 0.00 | 51 | 1019.3 |
| 20260502035358 | 6 | 323 | 0.0 | 3.2 | 0.00 | 0.00 | 0.00 | 51 | 1019.4 |
| 20260502035314 | 6 | 323 | 0.0 | 3.2 | 0.00 | 0.00 | 0.00 | 51 | 1019.4 |
| 20260502034814 | 6 | 281 | 0.0 | 1.6 | 0.00 | 0.00 | 0.00 | 51 | 1019.4 |
| 20260502034314 | 6 | 281 | 0.0 | 1.6 | 0.00 | 0.00 | 0.00 | 51 | 1019.4 |
| 20260502033814 | 6 | 280 | 1.6 | 1.6 | 0.00 | 0.00 | 0.00 | 50 | 1019.4 |
| 20260502033314 | 6 | 280 | 1.6 | 3.2 | 0.00 | 0.00 | 0.00 | 50 | 1019.3 |
| 20260502032814 | 7 | 280 | 3.2 | 3.2 | 0.00 | 0.00 | 0.00 | 49 | 1019.3 |
| 20260502032314 | 7 | 279 | 3.2 | 4.8 | 0.00 | 0.00 | 0.00 | 49 | 1019.2 |
| 20260502031814 | 7 | 277 | 3.2 | 4.8 | 0.00 | 0.00 | 0.00 | 49 | 1019.2 |
| 20260502031314 | 7 | 269 | 3.2 | 4.8 | 0.00 | 0.00 | 0.00 | 49 | 1019.1 |
| 20260502030814 | 7 | 265 | 3.2 | 4.8 | 0.00 | 0.00 | 0.00 | 49 | 1019.2 |
| 20260502030314 | 7 | 263 | 3.2 | 4.8 | 0.00 | 0.00 | 0.00 | 48 | 1019.1 |
| 20260502025814 | 7 | 266 | 3.2 | 4.8 | 0.00 | 0.00 | 0.00 | 48 | 1019.1 |
| 20260502025314 | 7 | 267 | 3.2 | 4.8 | 0.00 | 0.00 | 0.00 | 48 | 1019.0 |
| 20260502024814 | 7 | 265 | 3.2 | 4.8 | 0.00 | 0.00 | 0.00 | 46 | 1019.0 |
| 20260502024314 | 7 | 262 | 3.2 | 4.8 | 0.00 | 0.00 | 0.00 | 46 | 1019.1 |
| 20260502023814 | 7 | 267 | 3.2 | 4.8 | 0.00 | 0.00 | 0.00 | 45 | 1019.0 |
| 20260502023314 | 7 | 270 | 3.2 | 4.8 | 0.00 | 0.00 | 0.00 | 44 | 1019.0 |
| 20260502022814 | 7 | 281 | 1.6 | 3.2 | 0.00 | 0.00 | 0.00 | 44 | 1019.0 |
| 20260502022314 | 7 | 284 | 1.6 | 3.2 | 0.00 | 0.00 | 0.00 | 44 | 1019.0 |
| 20260502021814 | 7 | 284 | 1.6 | 3.2 | 0.00 | 0.00 | 0.00 | 44 | 1019.0 |
| 20260502021314 | 8 | 284 | 0.0 | 3.2 | 0.00 | 0.00 | 0.00 | 43 | 1019.0 |
| 20260502020814 | 8 | 284 | 0.0 | 1.6 | 0.00 | 0.00 | 0.00 | 43 | 1018.9 |
| 20260502020314 | 8 | 284 | 0.0 | 1.6 | 0.00 | 0.00 | 0.00 | 43 | 1019.1 |
| 20260502015858 | 8 | 284 | 0.0 | 1.6 | 0.00 | 0.00 | 0.00 | 42 | 1019.0 |
| 20260502015814 | 8 | 284 | 0.0 | 1.6 | 0.00 | 0.00 | 0.00 | 42 | 1019.0 |
| 20260502015314 | 8 | 284 | 0.0 | 1.6 | 0.00 | 0.00 | 0.00 | 42 | 1019.0 |
| 20260502014814 | 8 | 284 | 1.6 | 1.6 | 0.00 | 0.00 | 0.00 | 42 | 1019.0 |
| 20260502014314 | 8 | 284 | 1.6 | 1.6 | 0.00 | 0.00 | 0.00 | 41 | 1018.8 |
| 20260502013814 | 9 | 284 | 1.6 | 3.2 | 0.00 | 0.00 | 0.00 | 41 | 1018.8 |
| 20260502013314 | 9 | 284 | 1.6 | 3.2 | 0.00 | 0.00 | 0.00 | 38 | 1018.6 |
| 20260502012814 | 9 | 327 | 0.0 | 1.6 | 0.00 | 0.00 | 0.00 | 38 | 1018.6 |
| 20260502012314 | 10 | 327 | 0.0 | 1.6 | 0.00 | 0.00 | 0.00 | 36 | 1018.6 |
| 20260502011815 | 10 | 327 | 0.0 | 3.2 | 0.00 | 0.00 | 0.00 | 36 | 1018.5 |
| 20260502011314 | 10 | 335 | 0.0 | 1.6 | 0.00 | 0.00 | 0.00 | 37 | 1018.5 |
| 20260502010814 | 10 | 355 | 0.0 | 0.0 | 0.00 | 0.00 | 0.00 | 35 | 1018.4 |
| 20260502010314 | 10 | 355 | 0.0 | 0.0 | 0.00 | 0.00 | 0.00 | 34 | 1018.5 |
| 20260502005814 | 10 | 355 | 0.0 | 1.6 | 0.00 | 0.00 | 0.00 | 36 | 1018.5 |
| 20260502005315 | 10 | 355 | 0.0 | 0.0 | 0.00 | 0.00 | 0.00 | 34 | 1018.5 |
| 20260502004815 | 10 | 355 | 1.6 | 3.2 | 0.00 | 0.00 | 0.00 | 35 | 1018.5 |
| 20260502004315 | 10 | 355 | 1.6 | 3.2 | 0.00 | 0.00 | 0.00 | 37 | 1018.4 |
| 20260502003815 | 10 | 355 | 3.2 | 4.8 | 0.00 | 0.00 | 0.00 | 33 | 1018.4 |
| 20260502003315 | 10 | 346 | 3.2 | 6.4 | 0.00 | 0.00 | 0.00 | 33 | 1018.5 |
| 20260502002815 | 10 | 345 | 3.2 | 4.8 | 0.00 | 0.00 | 0.00 | 34 | 1018.4 |
| 20260502002315 | 10 | 355 | 3.2 | 8.0 | 0.00 | 0.00 | 0.00 | 33 | 1018.4 |
| 20260502001815 | 10 | 341 | 1.6 | 8.0 | 0.00 | 0.00 | 0.00 | 33 | 1018.5 |
| 20260502001315 | 10 | 299 | 0.0 | 1.6 | 0.00 | 0.00 | 0.00 | 33 | 1018.4 |
| 20260502000815 | 10 | 299 | 1.6 | 3.2 | 0.00 | 0.00 | 0.00 | 34 | 1018.4 |
| 20260502000317 | 10 | 301 | 1.6 | 6.4 | 0.00 | 0.00 | 0.00 | 34 | 1018.4 |
| 20260501235815 | 10 | 323 | 3.2 | 4.8 | 0.00 | 0.00 | 0.00 | 33 | 1018.5 |
| 20260501235315 | 10 | 335 | 6.4 | 8.0 | 0.00 | 0.00 | 0.00 | 33 | 1018.5 |
| 20260501234815 | 10 | 340 | 4.8 | 9.7 | 0.00 | 0.00 | 0.00 | 33 | 1018.6 |
| 20260501234315 | 10 | 332 | 4.8 | 8.0 | 0.00 | 0.00 | 0.00 | 34 | 1018.6 |
| 20260501233815 | 10 | 333 | 6.4 | 9.7 | 0.00 | 0.00 | 0.00 | 33 | 1018.7 |
| 20260501233315 | 10 | 346 | 8.0 | 14.5 | 0.00 | 0.00 | 0.00 | 33 | 1018.7 |
| 20260501232815 | 11 | 340 | 8.0 | 14.5 | 0.00 | 0.00 | 0.00 | 32 | 1018.6 |
| 20260501232315 | 11 | 348 | 4.8 | 12.9 | 0.00 | 0.00 | 0.00 | 35 | 1018.7 |
| 20260501231815 | 11 | 337 | 3.2 | 8.0 | 0.00 | 0.00 | 0.00 | 33 | 1018.7 |
| 20260501231315 | 11 | 281 | 3.2 | 6.4 | 0.00 | 0.00 | 0.00 | 33 | 1018.6 |
| 20260501230815 | 11 | 343 | 3.2 | 12.9 | 0.00 | 0.00 | 0.00 | 34 | 1018.6 |
| 20260501230315 | 11 | 297 | 1.6 | 4.8 | 0.00 | 0.00 | 0.00 | 35 | 1018.6 |
| 20260501225815 | 11 | 290 | 3.2 | 4.8 | 0.00 | 0.00 | 0.00 | 35 | 1018.6 |
| 20260501225315 | 10 | 317 | 4.8 | 9.7 | 0.00 | 0.00 | 0.00 | 34 | 1018.7 |
| 20260501224815 | 10 | 343 | 6.4 | 9.7 | 0.00 | 0.00 | 0.00 | 35 | 1018.7 |
| 20260501224315 | 10 | 22 | 6.4 | 14.5 | 0.00 | 0.00 | 0.00 | 34 | 1018.7 |
| 20260501223815 | 10 | 346 | 4.8 | 11.3 | 0.00 | 0.00 | 0.00 | 33 | 1018.7 |
| 20260501223315 | 10 | 340 | 3.2 | 9.7 | 0.00 | 0.00 | 0.00 | 34 | 1018.7 |
| 20260501222815 | 10 | 302 | 4.8 | 8.0 | 0.00 | 0.00 | 0.00 | 37 | 1018.7 |
| 20260501222315 | 11 | 312 | 4.8 | 9.7 | 0.00 | 0.00 | 0.00 | 33 | 1018.8 |
| 20260501221815 | 11 | 338 | 8.0 | 14.5 | 0.00 | 0.00 | 0.00 | 34 | 1018.8 |
| 20260501221315 | 11 | 344 | 8.0 | 19.3 | 0.00 | 0.00 | 0.00 | 35 | 1018.8 |
| 20260501220815 | 11 | 32 | 4.8 | 16.1 | 0.00 | 0.00 | 0.00 | 34 | 1018.9 |
| 20260501220315 | 11 | 276 | 4.8 | 9.7 | 0.00 | 0.00 | 0.00 | 33 | 1018.7 |
| 20260501215815 | 10 | 330 | 6.4 | 16.1 | 0.00 | 0.00 | 0.00 | 33 | 1018.7 |
| 20260501215315 | 11 | 312 | 4.8 | 17.7 | 0.00 | 0.00 | 0.00 | 32 | 1018.6 |
| 20260501214815 | 11 | 312 | 3.2 | 9.7 | 0.00 | 0.00 | 0.00 | 35 | 1018.7 |
| 20260501214315 | 11 | 301 | 3.2 | 8.0 | 0.00 | 0.00 | 0.00 | 33 | 1018.8 |
| 20260501213815 | 11 | 279 | 3.2 | 14.5 | 0.00 | 0.00 | 0.00 | 33 | 1018.7 |
| 20260501213315 | 11 | 329 | 3.2 | 9.7 | 0.00 | 0.00 | 0.00 | 35 | 1018.8 |
| 20260501212815 | 10 | 261 | 6.4 | 6.4 | 0.00 | 0.00 | 0.00 | 37 | 1018.9 |
| 20260501212315 | 10 | 355 | 9.7 | 16.1 | 0.00 | 0.00 | 0.00 | 36 | 1018.9 |
| 20260501211815 | 10 | 342 | 9.7 | 19.3 | 0.00 | 0.00 | 0.00 | 36 | 1019.0 |
| 20260501211315 | 10 | 35 | 6.4 | 19.3 | 0.00 | 0.00 | 0.00 | 35 | 1018.9 |
| 20260501210815 | 10 | 63 | 3.2 | 8.0 | 0.00 | 0.00 | 0.00 | 36 | 1018.9 |
| 20260501210315 | 10 | 109 | 4.8 | 8.0 | 0.00 | 0.00 | 0.00 | 40 | 1019.1 |
| 20260501205815 | 10 | 33 | 6.4 | 22.5 | 0.00 | 0.00 | 0.00 | 38 | 1019.1 |
| 20260501205315 | 10 | 39 | 6.4 | 17.7 | 0.00 | 0.00 | 0.00 | 37 | 1019.1 |
| 20260501204815 | 10 | 321 | 8.0 | 19.3 | 0.00 | 0.00 | 0.00 | 36 | 1019.3 |
| 20260501204315 | 10 | 327 | 8.0 | 19.3 | 0.00 | 0.00 | 0.00 | 39 | 1019.1 |
| 20260501203815 | 9 | 335 | 9.7 | 17.7 | 0.00 | 0.00 | 0.00 | 36 | 1019.2 |
| 20260501203315 | 9 | 32 | 8.0 | 24.1 | 0.00 | 0.00 | 0.00 | 36 | 1019.5 |
| 20260501202815 | 10 | 62 | 8.0 | 17.7 | 0.00 | 0.00 | 0.00 | 37 | 1019.6 |
| 20260501202315 | 10 | 346 | 11.3 | 16.1 | 0.00 | 0.00 | 0.00 | 37 | 1019.6 |
| 20260501201815 | 10 | 351 | 8.0 | 17.7 | 0.00 | 0.00 | 0.00 | 38 | 1019.6 |
| 20260501201315 | 10 | 35 | 4.8 | 14.5 | 0.00 | 0.00 | 0.00 | 38 | 1019.6 |
| 20260501200815 | 10 | 329 | 3.2 | 8.0 | 0.00 | 0.00 | 0.00 | 39 | 1019.7 |
| 20260501200315 | 9 | 52 | 4.8 | 14.5 | 0.00 | 0.00 | 0.00 | 40 | 1019.7 |
| 20260501195815 | 9 | 40 | 6.4 | 16.1 | 0.00 | 0.00 | 0.00 | 37 | 1019.7 |
| 20260501195315 | 9 | 302 | 11.3 | 17.7 | 0.00 | 0.00 | 0.00 | 40 | 1019.7 |
| 20260501194815 | 8 | 5 | 12.9 | 22.5 | 0.00 | 0.00 | 0.00 | 40 | 1019.7 |